Вернуться в каталог

CZ-6A DEB

АктивенSSO
NORAD 56280·DEBRIS·🇨🇳 China

Запущен Nov 11, 2022 с Taiyuan Satellite Launch Center

Loading…

Ближайшие Пролёты (ближайшие 24 часа)

TLE

СвежийSource: Space-Track

Эпоха: Sep 14, 2026, 08:45 UTC

1 56280U 22151ACY 26257.36523875  .00000801  00000-0  53764-3 0  9990
2 56280  98.8909 233.4510 0101033 159.0326 201.5028 14.01095710178279

Отслеживайте CZ-6A DEB в реальном времени с AllMySat

Download on the App Store